Location: Bessat
(45.8735°N, 1.9924°E)
Time: 04:33:21
(UTC+00:00)

X-37B - Pass Details

Date: 11 May 2021
Orbit: 386 x 389 km, 45.0° (Epoch: 10 June)

Event Time Altitude Azimuth Distance (km) Brightness Sun altitude
Rises 19:56:34 0° 277° (W) 2,274 5.7 -7.4°
Reaches altitude 10° 19:58:40 10° 273° (W) 1,418 4.4 -7.7°
Maximum altitude 20:01:48 56° 194° (SSW) 469 0.8 -8.1°
Enters shadow 20:04:40 12° 116° (ESE) 1,313 2.6 -8.5°
